Cecil Field, FL

7:14 PM EDT on March 28, 2017 (GMT -0400)
Cecil

Weather History for KVQQ - March, 2013

Change the Weather History Date:

Saturday, March 2, 2013

  Actual Average (KNIP) Record (KNIP)
Temperature  
Mean Temperature 42 °F -  
Max Temperature 53 °F 69 °F 82 °F (1997)
Min Temperature 32 °F 51 °F 37 °F (2005)
Degree Days  
Heating Degree Days 22    
Moisture  
Dew Point 31 °F    
Average Humidity 71    
Maximum Humidity 100    
Minimum Humidity 35    
Precipitation  
Precipitation 0.00 in - - ()
Sea Level Pressure  
Sea Level Pressure 30.02 in    
Wind  
Wind Speed 6 mph (West)    
Max Wind Speed 21 mph    
Max Gust Speed 36 mph    
Visibility 10 miles    
Events      
Averages and records for this station are not official NWS values.
T = Trace of Precipitation, MM = Missing Value Source: NWS Daily Summary

Daily Weather History Graph

Daily Weather History Graph

Search for Another Location

Airport or City:

Trip Planner

Search our weather history database for the weather conditions in past years. The results will help you decide how hot, cold, wet, or windy it might be!

Date:

Astronomy

Mar. 02, 2013 Rise Set
Actual Time 6:52 AM EST 6:27 PM EST
Civil Twilight 6:28 AM EST 6:51 PM EST
Nautical Twilight 6:00 AM EST 7:19 PM EST
Astronomical Twilight 5:32 AM EST 7:47 PM EST
Moon 11:38 PM EST (3/2) 9:44 AM EST (3/2)
Length of Visible Light 12h 23m
Length of Day
11h 35m
Waning Gibbous, 74% of the Moon is Illuminated
Mar 2
Waning Gibbous
Mar 4
Last Quarter
Mar 11
New
Mar 19
First Quarter
Mar 27
Full

Hourly Weather History & Observations

Time (EST) Temp. Windchill Dew Point Humidity Pressure Visibility Wind Dir Wind Speed Gust Speed Precip Events Conditions
12:15 AM 44.6 °F 42.2 °F 35.6 °F 71% 30.02 in 10.0 mi WSW 4.6 mph - N/A   Clear
12:35 AM 44.6 °F 43.1 °F 35.6 °F 71% 30.02 in 10.0 mi WSW 3.5 mph - N/A   Clear
12:55 AM 44.6 °F 42.2 °F 35.6 °F 71% 30.02 in 10.0 mi WSW 4.6 mph - N/A   Clear
1:35 AM 42.8 °F 40.1 °F 35.6 °F 76% 30.02 in 10.0 mi WSW 4.6 mph - N/A   Clear
1:55 AM 41.0 °F 38.0 °F 35.6 °F 81% 30.02 in 10.0 mi West 4.6 mph - N/A   Clear
2:15 AM 41.0 °F 39.0 °F 33.8 °F 76% 30.02 in 10.0 mi WSW 3.5 mph - N/A   Clear
2:35 AM 41.0 °F 37.1 °F 33.8 °F 76% 30.02 in 10.0 mi West 5.8 mph - N/A   Clear
2:55 AM 39.2 °F 35.9 °F 33.8 °F 81% 30.01 in 10.0 mi West 4.6 mph - N/A   Clear
3:15 AM 39.2 °F 35.0 °F 33.8 °F 81% 30.02 in 10.0 mi West 5.8 mph - N/A   Clear
3:35 AM 39.2 °F 35.9 °F 33.8 °F 81% 30.02 in 10.0 mi West 4.6 mph - N/A   Clear
3:55 AM 37.4 °F 34.9 °F 33.8 °F 87% 30.02 in 10.0 mi West 3.5 mph - N/A   Clear
4:15 AM 37.4 °F 34.9 °F 33.8 °F 87% 30.02 in 10.0 mi WSW 3.5 mph - N/A   Clear
4:35 AM 37.4 °F 34.9 °F 33.8 °F 87% 30.02 in 10.0 mi WSW 3.5 mph - N/A   Clear
4:55 AM 35.6 °F - 32.0 °F 87% 30.02 in 10.0 mi Calm Calm - N/A   Clear
5:15 AM 32.0 °F - 32.0 °F 100% 30.01 in 8.0 mi Calm Calm - N/A   Clear
5:35 AM 32.0 °F - 32.0 °F 100% 30.01 in 6.0 mi Calm Calm - N/A   Clear
5:55 AM 32.0 °F - 32.0 °F 100% 30.01 in 7.0 mi Calm Calm - N/A   Clear
6:15 AM 32.0 °F - 32.0 °F 100% 30.01 in 5.0 mi Calm Calm - N/A   Clear
6:35 AM 32.0 °F - 30.2 °F 93% 30.01 in 5.0 mi Calm Calm - N/A   Clear
6:50 AM 32.0 °F 27.5 °F 30.2 °F 93% 30.01 in 10.0 mi West 4.6 mph - N/A   Clear
7:50 AM 32.0 °F - 32.0 °F 100% 30.03 in 10.0 mi Calm Calm - N/A   Clear
8:50 AM 44.6 °F 38.8 °F 33.8 °F 66% 30.04 in 10.0 mi West 11.5 mph - N/A   Clear
9:50 AM 48.2 °F - 32.0 °F 54% 30.02 in 10.0 mi West 13.8 mph - N/A   Clear
10:50 AM 50.0 °F - 28.4 °F 43% 30.00 in 10.0 mi West 13.8 mph 32.2 mph N/A   Clear
11:50 AM 53.6 °F - 26.6 °F 35% 29.99 in 10.0 mi West 20.7 mph 35.7 mph N/A   Clear
12:50 PM 53.6 °F - 28.4 °F 38% 29.99 in 10.0 mi West 13.8 mph 33.4 mph N/A   Clear
1:50 PM 53.6 °F - 28.4 °F 38% 29.96 in 10.0 mi West 18.4 mph 28.8 mph N/A   Partly Cloudy
2:50 PM 53.6 °F - 28.4 °F 38% 29.95 in 10.0 mi WNW 16.1 mph 28.8 mph N/A   Partly Cloudy
3:50 PM 53.6 °F - 28.4 °F 38% 29.95 in 10.0 mi West 12.7 mph 21.9 mph N/A   Partly Cloudy
4:50 PM 50.0 °F - 28.4 °F 43% 29.96 in 10.0 mi WNW 11.5 mph 23.0 mph N/A   Partly Cloudy
5:50 PM 46.4 °F 40.1 °F 28.4 °F 50% 29.98 in 10.0 mi WNW 15.0 mph 21.9 mph N/A   Clear
6:50 PM 42.8 °F 37.0 °F 26.6 °F 53% 30.01 in 10.0 mi WNW 10.4 mph - N/A   Clear
7:50 PM 41.0 °F 37.1 °F 26.6 °F 57% 30.02 in 10.0 mi NW 5.8 mph - N/A   Clear
8:15 PM 39.2 °F 33.6 °F 26.6 °F 61% 30.03 in 10.0 mi NW 8.1 mph - N/A   Clear
8:35 PM 39.2 °F 33.6 °F 26.6 °F 61% 30.04 in 10.0 mi WNW 8.1 mph - N/A   Clear
8:55 PM 39.2 °F 33.0 °F 28.4 °F 65% 30.04 in 10.0 mi WNW 9.2 mph - N/A   Clear
9:15 PM 39.2 °F 34.2 °F 28.4 °F 65% 30.05 in 10.0 mi WNW 6.9 mph - N/A   Clear
9:55 PM 37.4 °F 34.9 °F 28.4 °F 70% 30.05 in 10.0 mi West 3.5 mph - N/A   Clear
10:15 PM 37.4 °F - 28.4 °F 70% 30.05 in 10.0 mi Calm Calm - N/A   Clear
10:55 PM 35.6 °F 31.7 °F 28.4 °F 75% 30.05 in 10.0 mi West 4.6 mph - N/A   Clear
11:15 PM 35.6 °F 31.7 °F 28.4 °F 75% 30.04 in 10.0 mi West 4.6 mph - N/A   Clear
11:35 PM 35.6 °F 31.7 °F 28.4 °F 75% 30.04 in 10.0 mi WSW 4.6 mph - N/A   Clear
11:55 PM 35.6 °F 31.7 °F 28.4 °F 75% 30.03 in 10.0 mi West 4.6 mph - N/A   Clear